NOAA NWS Hourly Roundups by Site

Regional Weather Roundup for State College, PA

To Select Another Site Choose from List

Select Site:  

000
ASUS41 KCTP 190810
RWRCTP

REGIONAL WEATHER ROUNDUP
NATIONAL WEATHER SERVICE STATE COLLEGE PA
400 AM EDT FRI APR 19 2024

Note: "fair" indicates few or no clouds below 12,000 feet with no
significant weather and/or obstructions to visibility.

* = STATION THAT DOES NOT REPORT PRECIPITATION /E.G. RAIN...SNOW...ETC/
    THUNDER OR FOG.

PAZ002>004-007>009-013>016-020>023-029>032-190900-
WESTERN PENNSYLVANIA

CITY           SKY/WX    TMP DP  RH WIND       PRES   REMARKS
ERIE           MOCLDY    55  46  71 SE10      29.89F
MEADVILLE      MOCLDY    55  45  68 SE3       29.91F
FRANKLIN       MOCLDY    49  49 100 SE8       29.95F
NEW CASTLE     MOCLDY    49  47  93 CALM      29.91F
BEAVER COUNTY  MOCLDY    58  45  60 SE5       29.91F
BUTLER         MOCLDY    48  46  93 E6        29.94F
PITTSBURGH INT MOCLDY    56  45  66 E3        29.91F
PITTSBURGH     PTCLDY    58  45  62 SE6       29.92F
INDIANA*       NOT AVBL
LATROBE        PTCLDY    48  46  93 CALM      29.95F
CONNELLSVILLE  PTCLDY    62  42  48 SW8       29.95F
WASHINGTON CO* MOCLDY    49  46  90 MISG      29.94F
$$

PAZ004>006-010>012-017>019-024>028-033>037-041-042-045-046-049>053-190900-
CENTRAL PENNSYLVANIA

CITY           SKY/WX    TMP DP  RH WIND       PRES   REMARKS
BRADFORD       PTCLDY    41  40  96 SE5       29.99S
ST MARYS       MOCLDY    46  43  87 SE5       30.03S
DUBOIS         PTCLDY    53  45  74 SE10      29.97F
CLEARFIELD     PTCLDY    43  41  93 NE6       30.03R
JOHNSTOWN      PTCLDY    53  44  71 SE9       30.00S
SOMERSET       PTCLDY    52  43  71 S8        30.00S
ALTOONA        MOCLDY    53  48  83 SE7       30.04R
STATE COLLEGE  CLOUDY    50  50 100 CALM      30.05R
REEDSVILLE     CLOUDY    52  48  87 SE3       30.07R
WELLSBORO      CLOUDY    48  48 100 S13       30.02R
WILLIAMSPORT   CLOUDY    50  46  86 SE8       30.07R
SELINSGROVE    CLOUDY    49  44  83 SE8       30.11R
FT INDIANTOWN  CLOUDY    47  43  86 E5        30.10S
CAPITAL CITY   CLOUDY    50  44  80 E9        30.12R
HARRISBURG     CLOUDY    48  44  86 SE10      30.12R
YORK           CLOUDY    49  45  86 SE8       30.10R
$$

PAZ038>040-043-044-047-048-054-055-060>062-067>071-190900-
EASTERN PENNSYLVANIA

CITY           SKY/WX    TMP DP  RH WIND       PRES   REMARKS
TOWANDA        CLOUDY    48  48 100 CALM      30.09S
SCRANTON       CLOUDY    47  40  76 CALM      30.10R
MOUNT POCONO   FOG       38  38 100 SE6       30.10R VSB 1
HAZLETON       CLOUDY    43  41  93 SE5       30.13R
LEHIGHTON      CLOUDY    45  37  76 E3        30.15R
ALLENTOWN      CLOUDY    46  37  71 E3        30.14S
QN CITY/ALNTWN CLOUDY    45  37  76 CALM      30.15F
QUAKERTOWN*    CLOUDY    45  39  81 CALM      30.14S
PERKASIE*      CLOUDY    45  41  87 CALM      30.14S
DOYLESTOWN     CLOUDY    46  39  76 VRB3      30.13S
READING        CLOUDY    48  39  71 SE6       30.13R
LANCASTER      CLOUDY    48  42  80 SE8       30.12R
COATESVILLE    CLOUDY    45  43  93 E5        30.13R
WEST CHESTER   CLOUDY    45  37  76 CALM      30.14R
POTTSTOWN      CLOUDY    45  40  82 CALM      30.15S
BLUE BELL      CLOUDY    44  41  91 CALM      30.14S
NORTH PHILA    CLOUDY    46  39  76 CALM      30.15F
PHILADELPHIA   CLOUDY    46  39  76 NE7       30.13F
$$


 

View Past Reports for State College, PA.

Products Courtesy of NOAA-NWS
NWS Information Parsing Script by Ken True at Saratoga Weather - Script by SE Lincoln Weather.